sat.trackr.live / text

‹ back to catalog

CSC-1

NORAD 58022 · 2023-155G

PAYLOAD ACTIVE UNKNOWN

§ Identity

Operator
Country
NETH
Launch date
2023-10-09
Launch site
FRGUI
Launch vehicle
Mass (kg)
RCS (m²)

External: N2YO · Heavens-Above · Gunter

§ Orbital elements

Epoch: 2026-05-25T03:07:07.703328Z

Period
95.33 min
Inclination
97.5373°
Eccentricity
0.0006902
Mean motion
15.10562027 rev/d
Perigee alt
529.7 km
Apogee alt
539.3 km
Semi-major
6,912.6 km
B*
3.4383e-4
RAAN
214.9565°
Arg perigee
329.3162°
Mean anomaly
30.7663°
Rev number
14,425

§ Raw data

CSC-11 58022U 23155G   26145.12995027  .00005613  00000+0  34383-3 0  99942 58022  97.5373 214.9565 0006902 329.3162  30.7663 15.10562027144258

JSON: /api/v1/satellites/58022 · /tle

For live sub-satellite position, see the globe view (requires WebGL).

§ Visibility from observer

Set your observer location to see the next 7 days of passes ≥ 10°. The values pass through the URL so the page stays shareable.

No JS? Fill the form by hand. The geolocation button needs JavaScript.

§ Radio — SatNOGS DB

ModeDescriptionDownlinkUplink
FM Mode S 2.245 GHz
BPSK Mode U - TLM 401.175 MHz
BPSK S-Band transmitter 2.213 GHz

3 transmitters · refreshed weekly from db.satnogs.org